OH6GPB-4 Weather Reports


time (UTC)temp
F
wind
direction
speed
knots
gust
knots
rain 1hr
in
rain 24hr
in
rain mn
in
humidity
%
barometer
mb
20260506134733 46 200 3.5 9.6 0.00 0.00 0.00 51 1009.0
20260506131736 46 188 3.5 10.4 0.00 0.00 0.00 51 1008.8
20260506124720 46 258 3.5 9.6 0.00 0.00 0.00 48 1008.5
20260506121735 45 240 4.3 13.0 0.00 0.00 0.00 50 1008.6
20260506114739 44 265 3.5 10.4 0.00 0.00 0.00 54 1008.5
20260506111732 43 257 5.2 13.9 0.00 0.00 0.00 58 1008.0
20260506104728 42 245 6.1 14.8 0.00 0.00 0.00 59 1007.9
20260506101727 42 253 3.5 10.4 0.00 0.00 0.00 60 1007.5
20260506094722 42 221 1.7 9.6 0.00 0.00 0.00 61 1007.1
20260506091721 43 270 4.3 10.4 0.00 0.00 0.00 59 1006.8
20260506084725 42 246 2.6 9.6 0.00 0.00 0.00 59 1006.7
20260506081733 41 252 3.5 14.8 0.00 0.00 0.00 60 1006.4
20260506071731 41 259 3.5 13.9 0.00 0.00 0.00 62 1005.6
20260506061728 39 274 7.0 13.9 0.00 0.00 0.00 63 1004.9
20260506044731 39 283 7.8 13.0 0.00 0.00 0.00 65 1003.9
20260506041731 38 214 6.1 11.3 0.00 0.00 0.00 67 1003.8
20260506034723 38 269 2.6 13.0 0.00 0.00 0.00 68 1003.3
20260506031723 37 253 2.6 11.3 0.00 0.00 0.00 70 1003.2
20260506024729 37 285 1.7 10.4 0.00 0.00 0.00 71 1002.9
20260506021740 37 274 3.5 12.2 0.00 0.00 0.00 71 1002.7
20260506014727 37 286 0.9 8.7 0.00 0.00 0.00 70 1002.6
20260506011736 38 255 3.5 11.3 0.00 0.00 0.00 69 1002.2
20260506004727 38 271 6.1 11.3 0.00 0.00 0.00 68 1002.1
20260506001726 39 245 5.2 12.2 0.00 0.00 0.00 66 1001.7
20260505234723 39 285 5.2 10.4 0.00 0.00 0.00 66 1001.7
20260505231733 39 300 1.7 8.7 0.00 0.00 0.00 66 1001.5
20260505224723 39 259 3.5 11.3 0.00 0.00 0.00 65 1001.4
20260505221733 40 267 1.7 10.4 0.00 0.00 0.00 63 1001.3
20260505214725 40 271 0.9 7.8 0.00 0.00 0.00 64 1001.2
20260505211734 40 251 2.6 7.0 0.00 0.00 0.00 63 1001.2
20260505204738 39 269 0.0 6.1 0.00 0.04 0.00 67 1000.9
20260505201729 40 238 0.0 2.6 0.00 0.04 0.00 71 1000.7
20260505194730 41 236 0.9 3.5 0.00 0.13 0.00 68 1000.7
20260505191725 42 282 2.6 5.2 0.00 0.13 0.00 64 1000.6
20260505184735 43 263 1.7 7.8 0.00 0.20 0.00 60 1000.5
20260505181725 44 267 3.5 9.6 0.00 0.20 0.00 53 1000.1
20260505174727 45 250 2.6 7.8 0.00 0.20 0.00 50 1000.0
20260505171734 44 257 3.5 9.6 0.00 0.20 0.00 54 999.9
20260505164721 45 241 5.2 11.3 0.00 0.20 0.00 49 999.6
20260505161738 47 226 4.3 12.2 0.00 0.20 0.00 43 999.5
20260505151727 48 236 5.2 19.1 0.00 0.20 0.00 42 999.2